Theta_e
311 312 313 313 313 314 314 314 314 314 314 315 315 316 317 318 318 318 317 316 316 316 316 316 315 314 312 311 310 308 307 305 304 304 304 305 306 307 306 304 301 300
310 311 312 312 312 313 313 312 313 313 313 314 316 317 317 318 317 317 317 316 316 316 315 314 314 313 310 308 307 306 305 304 304 304 304 305 306 306 306 304 301 300
309 310 311 311 311 313 312 311 311 312 312 313 316 317 316 316 316 315 315 315 315 314 314 313 313 312 309 306 306 305 304 304 305 305 305 305 305 305 305 303 300 298
309 309 310 310 310 311 310 310 311 312 312 313 314 315 314 314 313 314 314 314 313 312 312 312 312 311 308 306 305 305 304 304 305 305 304 304 304 304 303 302 299 297
308 309 309 308 309 309 309 310 311 311 312 312 312 312 312 311 311 312 313 313 312 311 311 312 311 309 308 307 306 304 302 302 304 304 304 302 302 302 301 300 298 295
308 308 308 307 307 308 308 309 310 310 310 311 312 312 311 310 310 311 312 312 312 311 311 311 309 307 306 306 304 303 301 302 303 304 303 301 300 300 299 298 296 294
307 307 307 306 306 307 307 309 309 308 309 311 312 311 309 309 310 311 311 311 311 311 311 310 309 308 307 305 303 301 301 300 302 302 301 299 299 298 297 296 294 292
307 307 306 305 305 306 307 308 307 307 309 310 311 310 308 308 309 309 310 310 309 310 310 309 307 308 307 304 300 299 298 298 300 300 298 297 298 296 294 293 292 291
306 306 305 304 305 305 306 306 305 306 307 308 309 308 308 308 308 307 308 308 306 307 307 305 305 306 305 301 297 296 296 297 298 298 297 296 296 295 293 291 290 289
306 305 304 304 304 305 305 304 304 305 306 306 306 306 307 307 306 306 306 304 303 304 304 302 303 305 302 297 295 295 295 296 296 296 296 296 296 295 292 290 289 289
305 304 304 304 304 304 304 303 303 304 305 305 305 305 306 306 305 305 304 302 302 303 302 300 300 301 300 297 295 294 294 296 296 296 295 295 295 294 292 290 289 290
304 304 303 303 303 303 303 302 302 302 303 305 305 304 304 305 304 304 303 302 302 302 301 299 298 298 299 298 296 294 293 294 295 295 294 294 293 292 291 290 290 290
303 303 302 302 302 302 302 301 301 300 300 303 304 302 303 303 303 303 302 301 302 302 302 301 297 295 296 296 295 293 292 293 294 294 293 292 291 290 290 290 290 290
303 302 302 301 301 301 302 301 300 299 300 302 301 301 301 302 302 302 301 300 301 302 302 300 297 295 294 292 291 291 291 292 293 292 290 289 289 289 289 290 290 290
302 302 301 300 300 300 301 301 300 299 299 299 299 299 299 300 300 299 299 299 300 299 298 297 296 294 292 290 290 290 290 290 291 290 289 288 289 289 289 289 289 289
302 301 300 299 299 299 300 301 299 298 298 297 297 297 297 298 297 297 296 296 297 296 295 294 293 292 290 290 290 289 289 289 289 288 288 289 289 288 288 288 288 288
301 300 299 299 299 299 299 299 299 298 297 296 295 296 296 296 296 295 295 295 294 294 293 292 292 291 290 289 288 288 288 288 288 288 288 288 289 289 288 288 288 287
300 299 299 298 298 298 298 298 298 297 295 294 294 295 295 295 295 295 295 294 293 292 292 291 291 291 289 288 287 287 287 287 288 288 288 288 288 288 288 288 287 287
299 298 298 297 297 297 297 297 297 295 294 293 294 294 294 293 293 294 294 293 292 290 290 289 289 289 288 287 286 286 286 287 288 288 288 288 288 288 288 288 287 287
298 297 297 297 296 296 296 296 295 294 293 293 293 293 292 292 292 291 290 290 290 289 288 288 287 287 287 286 285 285 286 287 287 288 288 288 288 288 288 288 287 287
297 297 296 296 295 295 295 294 294 293 292 292 292 291 291 292 291 290 289 288 288 287 287 286 286 285 285 285 285 285 285 286 286 287 287 287 288 288 287 287 287 288
296 296 295 295 294 294 293 293 292 291 291 291 290 290 290 290 289 288 287 287 287 286 285 285 284 284 284 284 284 284 284 285 285 286 286 287 287 287 287 287 288 288
295 295 295 294 293 292 292 291 291 290 290 290 289 288 288 288 287 287 287 287 286 285 284 284 284 283 283 284 283 283 283 284 285 285 286 287 287 287 287 287 287 287
294 294 294 293 292 292 291 290 290 289 289 289 289 288 287 286 286 286 286 286 285 284 284 284 283 283 283 283 283 283 283 284 285 285 286 286 286 286 287 287 287 288
293 293 293 292 292 291 291 290 289 288 288 288 287 287 287 286 286 286 285 285 284 284 283 283 283 283 283 283 283 283 283 283 284 285 285 285 285 286 287 287 288 290
292 293 293 292 291 291 290 289 288 288 287 287 286 286 287 286 285 285 285 284 283 283 283 282 282 283 283 283 283 283 283 283 284 285 285 285 286 287 288 289 290 290
Wind_Speed
21 22 24 25 28 30 30 29 30 32 32 33 34 34 34 34 34 34 34 33 33 33 34 34 35 35 36 36 37 37 38 37 36 33 31 29 29 28 28 27 24 22
23 22 24 26 29 31 30 29 31 32 31 32 33 32 32 33 34 34 34 33 33 34 34 34 34 33 34 34 35 35 35 34 33 31 30 30 29 29 28 28 25 23
24 23 25 27 28 30 30 29 31 31 30 31 33 31 32 34 35 35 34 34 35 35 34 34 33 33 34 33 33 33 32 32 33 32 31 30 29 29 28 27 25 22
24 24 25 26 27 28 29 28 30 31 31 31 32 31 32 33 34 35 34 35 35 34 33 33 33 33 34 33 32 32 30 30 32 33 31 29 29 29 28 27 25 22
22 23 24 25 28 29 30 30 30 31 32 31 30 29 32 34 34 34 34 34 34 33 32 33 33 34 35 33 31 30 29 29 31 31 30 28 28 28 27 26 25 22
21 23 24 25 28 31 32 32 31 30 31 30 28 29 31 33 33 33 33 33 33 34 33 33 34 34 34 32 31 29 29 29 30 30 29 28 28 28 26 25 25 23
21 23 25 26 28 31 31 31 31 30 30 29 29 30 31 31 31 32 33 33 33 34 34 34 34 33 32 31 30 29 28 28 30 30 28 28 28 27 26 25 25 24
22 23 26 27 29 30 30 30 30 30 31 30 31 31 31 31 31 31 32 32 32 33 34 34 33 32 31 30 29 29 28 29 29 29 28 28 29 28 27 27 26 25
23 24 26 28 29 30 30 29 29 31 31 32 32 32 32 31 31 31 30 30 31 33 34 33 33 32 31 30 29 29 29 30 29 29 29 30 30 30 29 29 28 26
25 26 27 29 29 29 29 28 29 31 32 32 32 32 31 32 31 30 29 29 31 33 33 32 31 31 30 29 28 29 30 31 30 30 31 32 32 32 32 31 29 27
27 28 29 31 30 30 30 29 28 30 31 32 31 31 31 31 31 31 30 30 31 33 32 32 31 30 30 29 29 29 30 31 31 30 31 32 33 33 33 32 30 28
27 28 31 33 32 31 31 30 29 29 30 31 31 31 31 31 32 31 30 31 32 33 32 31 30 30 29 29 29 29 30 31 31 31 32 33 33 34 33 31 29 27
28 29 30 32 33 32 30 30 30 29 30 31 31 31 31 32 32 31 30 31 32 32 30 30 30 30 29 29 30 30 31 31 32 32 33 33 34 34 32 30 28 25
27 28 29 30 31 31 30 30 29 30 30 31 31 31 32 32 32 30 30 30 31 30 29 29 30 30 29 30 30 31 32 33 33 33 33 33 33 32 30 28 26 24
25 25 25 27 29 30 30 30 29 29 30 30 31 32 32 31 30 29 29 30 30 29 27 28 29 30 31 32 32 32 33 33 33 34 34 34 32 30 29 27 25 23
23 23 23 25 28 29 30 30 29 28 29 30 30 30 30 29 29 28 29 29 28 27 26 27 28 30 31 32 33 34 34 33 34 34 34 34 32 31 29 27 25 23
22 22 24 25 26 28 29 29 29 28 29 29 29 29 29 28 27 27 28 27 26 25 26 27 28 30 31 32 33 34 35 35 35 34 34 33 32 31 29 27 25 22
22 23 24 24 25 27 28 28 28 28 28 28 28 28 28 27 27 27 27 27 25 25 25 26 27 29 30 31 32 34 35 35 35 34 33 32 31 30 29 27 25 22
22 22 23 24 24 25 26 27 28 28 27 27 27 27 27 26 26 26 25 25 24 24 25 25 25 27 29 31 32 34 33 33 34 34 33 32 31 29 27 26 24 22
21 22 22 23 24 24 25 27 28 28 27 27 26 25 25 25 25 24 23 23 23 23 23 24 24 26 28 30 31 32 32 32 33 33 32 31 30 28 25 23 22 20
21 21 21 22 23 23 25 26 27 27 26 26 25 24 24 25 25 24 24 23 22 22 22 22 23 24 26 28 30 31 31 30 30 31 30 29 27 24 22 20 19 18
20 20 20 20 22 23 24 25 26 26 25 24 24 23 23 24 23 23 23 22 21 21 21 21 21 22 24 27 29 30 30 28 28 29 28 26 24 22 20 19 18 17
18 19 20 20 21 22 23 24 25 25 24 24 23 22 22 22 22 21 21 21 20 20 21 21 21 21 23 26 28 28 28 27 26 27 26 25 23 22 20 19 18 16
17 19 20 20 21 22 23 23 23 23 23 23 22 22 21 21 20 19 19 19 20 20 20 21 21 21 22 25 26 27 27 27 27 26 25 24 23 21 19 17 16 14
16 18 20 20 21 22 22 22 22 22 22 21 21 20 20 19 19 18 18 18 19 19 19 20 21 21 22 23 25 26 27 27 27 26 25 23 21 19 17 15 15 14
16 18 20 20 21 21 21 21 21 21 21 20 19 19 19 19 18 18 17 17 18 18 18 19 20 21 21 21 23 25 26 26 26 25 24 22 19 17 15 14 14 14
Wind_Direction
217 218 221 224 223 220 221 222 223 224 223 218 216 217 222 227 228 227 226 225 223 222 222 223 225 225 221 217 214 210 207 206 206 207 209 210 211 214 214 211 210 205
219 219 221 225 225 224 224 225 226 225 221 219 222 228 233 235 232 228 227 225 225 225 225 225 226 225 220 214 211 208 208 209 209 211 214 213 213 215 216 214 211 208
221 221 223 226 226 223 224 225 225 224 222 223 228 232 234 234 230 229 228 227 228 229 227 226 226 224 217 211 208 206 207 210 212 214 216 215 214 215 215 213 209 206
222 224 226 228 225 220 218 220 222 224 226 228 229 229 231 231 229 229 229 228 228 228 227 225 224 221 216 211 209 207 209 213 215 216 215 213 214 214 213 210 205 201
221 224 226 227 225 221 219 221 225 227 229 230 230 231 231 229 228 229 230 230 227 225 226 226 223 219 216 215 214 212 211 213 215 215 212 210 211 212 210 206 200 197
219 223 223 225 226 225 224 225 227 228 229 229 231 233 231 229 229 231 233 233 229 225 225 224 221 219 217 217 216 213 213 214 215 214 210 208 208 208 205 201 196 194
218 222 223 225 226 225 225 227 228 229 229 230 232 232 230 230 233 235 236 233 229 226 224 223 221 219 219 219 216 214 213 214 213 210 206 204 205 202 198 195 193 191
221 223 225 227 227 226 226 228 228 229 230 231 231 231 232 234 236 236 234 231 228 226 224 222 221 220 220 219 215 212 210 211 211 206 200 199 199 195 190 189 189 188
220 222 224 227 227 227 229 230 229 230 231 231 232 233 235 237 237 233 232 230 227 224 222 221 220 220 220 218 213 210 209 210 208 202 198 198 195 191 188 186 186 185
217 218 222 225 225 226 228 229 230 231 231 231 232 234 236 237 234 232 231 230 226 222 220 219 220 221 219 217 214 213 212 211 206 200 198 198 195 192 189 186 185 183
217 219 222 225 225 226 226 225 226 229 231 231 231 233 235 235 232 231 231 228 224 221 218 217 219 220 219 217 216 215 215 213 206 199 197 197 196 193 190 187 186 184
218 220 225 226 226 226 226 224 225 226 228 230 231 232 233 232 232 232 231 228 224 220 218 218 220 222 221 221 220 216 214 210 204 198 196 195 195 193 190 189 187 186
219 221 225 226 225 225 225 224 224 224 227 231 232 231 231 231 232 233 231 229 225 222 221 222 223 223 222 222 219 215 211 206 201 197 194 193 193 191 189 188 189 189
221 223 225 225 223 224 224 223 223 225 228 231 232 231 231 232 233 232 230 228 225 223 224 224 224 224 222 218 214 211 209 205 199 194 191 189 189 189 188 189 190 190
221 222 223 223 221 221 222 220 220 224 227 229 230 231 232 233 232 231 228 225 223 223 224 224 224 224 221 217 212 209 206 201 194 191 190 188 186 186 187 189 189 187
219 219 220 220 219 220 219 218 218 221 224 226 228 229 230 230 229 227 225 223 222 223 223 222 223 224 222 219 215 209 203 197 192 191 191 189 188 186 185 186 187 187
217 218 218 219 220 219 218 216 216 220 223 224 225 226 228 228 227 225 224 224 225 226 225 223 224 225 223 220 215 208 203 198 193 190 190 190 190 188 186 185 186 185
215 216 217 218 218 218 217 214 215 218 221 221 221 223 225 225 225 226 226 226 227 228 227 226 227 227 224 219 212 206 202 198 193 190 190 190 191 190 189 188 185 181
214 214 216 216 215 215 216 214 214 216 217 218 219 222 222 222 223 226 227 227 226 227 227 227 228 228 223 217 211 205 201 197 195 193 192 191 191 192 192 190 184 178
212 212 213 213 213 213 213 213 213 214 216 218 219 218 218 219 221 223 223 225 224 224 225 226 227 228 223 216 210 205 201 198 197 195 193 191 192 193 191 187 182 180
209 210 209 210 210 210 210 210 211 212 213 215 215 215 216 218 220 219 218 220 222 222 223 223 225 226 220 213 208 204 200 198 196 193 191 191 192 190 185 182 182 187
208 207 205 205 204 203 204 206 207 208 209 211 210 211 215 217 217 217 216 216 219 221 219 219 221 223 217 210 206 202 198 194 193 191 190 190 188 182 180 183 188 194
209 206 202 201 199 198 199 201 203 205 206 207 206 206 209 212 212 213 215 215 215 216 216 215 217 218 213 207 203 200 195 192 192 191 190 189 184 180 183 188 191 198
207 205 201 197 196 196 197 198 200 201 203 205 206 204 205 207 208 210 214 215 214 215 216 215 214 210 206 204 202 200 197 195 193 190 187 185 181 180 184 189 195 210
203 203 199 196 195 196 196 195 195 197 201 202 203 203 203 204 206 209 211 213 214 215 216 215 212 206 202 203 202 201 199 196 192 187 183 180 179 179 182 193 209 227
199 198 195 194 194 192 191 191 192 195 197 196 196 199 201 202 204 206 207 208 210 211 211 211 208 201 198 200 201 200 197 194 191 187 182 178 180 185 193 207 225 240